User: anonymous   Login
Location: Unspecified
(0.0000°N, 0.0000°E)
Time: 20:44:35
(UTC+00:00)
Language:

STARLINK-4690 - Orbit

View from above orbital plane
View from above orbital plane
View from above satellite
View from above satellite

Ground track
Ground track

The orbit is defined by the following mean orbital elements,

1 53604U          26145.57154896 +.00000000 +00000-0 +25359-4 0 00002
2 53604  53.2146 253.8419 0001330  85.2906 274.8238 15.08840419    04
Epoch (UTC): 25 May 2026 13:43:01
Eccentricity: 0.0001330
inclination: 53.2146°
perigee height: 539 km
apogee height: 541 km
right ascension of ascending node: 253.8419°
argument of perigee: 85.2906°
revolutions per day: 15.08840419
mean anomaly at epoch: 274.8238°

The dashed part of the orbit path shows where the satellite is in the earth's shadow,  

DLR